This demonstration page uses our WeatherBlox Daily Observations layout. Learn more.

41.55636, -103.73856

Hourly Observations for May 12, 2017

Temp ( °F °C ) Dew Point ( °F °C ) Humidity (%) Winds ( mph kmh ) Pressure ( in mb ) Visibility ( mi km ) Precip ( " mm )
12:53 am 00:53 Clear 47 8.3 41 5 80 80 E 10 17 30.08 1019 10 16.0934 0 0
1:53 am 01:53 Clear 47 8.3 40 4.4 77 77 E 10 17 30.06 1018 10 16.0934 0 0
2:53 am 02:53 Clear 46 7.8 40 4.4 79 79 E 9 15 30.06 1018 10 16.0934 0 0
3:53 am 03:53 Clear 46 7.8 40 4.4 79 79 ESE 9 15 30.04 1017 10 16.0934 0 0
4:53 am 04:53 Clear 44 6.7 39 3.9 83 83 E 10 17 30.04 1017 10 16.0934 0 0
5:53 am 05:53 Sunny 44 6.7 39 3.9 83 83 ESE 9 15 30.04 1017 10 16.0934 0 0
6:53 am 06:53 Sunny 48 8.9 42 5.6 80 80 ESE 13 20 30.04 1017 10 16.0934 0 0
7:53 am 07:53 Sunny 54 12.2 44 6.7 69 69 ESE 10 17 30.02 1017 10 16.0934 0 0
8:53 am 08:53 Sunny 60 15.6 45 7.2 58 58 SE 12 19 30 1016 10 16.0934 0 0
9:53 am 09:53 Sunny 68 20 43 6.1 40 40 SSE 14 22 29.96 1015 10 16.0934 0 0
10:53 am 10:53 Sunny 72 22.2 43 6.1 35 35 SSE 17 28 29.95 1014 10 16.0934 0 0
11:53 am 11:53 Sunny 74 23.3 43 6.1 33 33 S 20 31 29.93 1014 10 16.0934 0 0
12:53 pm 12:53 Sunny 75 23.9 45 7.2 34 34 SSE 16 26 29.89 1012 10 16.0934 0 0
1:53 pm 13:53 Sunny 78 25.6 45 7.2 31 31 SE 18 30 29.86 1011 10 16.0934 0 0
2:53 pm 14:53 Sunny 80 26.7 44 6.7 28 28 SSE 21 33 29.83 1010 10 16.0934 0 0
3:53 pm 15:53 Sunny 80 26.7 43 6.1 27 27 SSE 18 30 29.8 1009 10 16.0934 0 0
4:53 pm 16:53 Sunny 80 26.7 42 5.6 26 26 SSE 17 28 29.79 1009 10 16.0934 0 0
5:53 pm 17:53 Sunny 78 25.6 43 6.1 29 29 SSE 17 28 29.78 1008 10 16.0934 0 0
6:53 pm 18:53 Sunny 75 23.9 43 6.1 32 32 SSE 16 26 29.77 1008 10 16.0934 0 0
7:53 pm 19:53 Sunny 68 20 45 7.2 44 44 ESE 14 22 29.78 1009 10 16.0934 0 0
8:53 pm 20:53 Clear 65 18.3 45 7.2 49 49 SE 14 22 29.78 1009 10 16.0934 0 0
9:53 pm 21:53 Clear 63 17.2 43 6.1 48 48 ESE 13 20 29.78 1009 10 16.0934 0 0
10:53 pm 22:53 Clear 61 16.1 43 6.1 52 52 SE 13 20 29.78 1008 10 16.0934 0 0
11:53 pm 23:53 Clear 58 14.4 43 6.1 58 58 ESE 8 13 29.77 1008 10 16.0934 0 0

Powered by AerisWeather